SCP
0 0 0 0 0 0 0 0 0 1 1 1 1 1 0 0 0 0 0 0 0 0 0 0 0 0 0 0 0 0 0 0 0 0 0 0 0 0 0 0 0 0 0
0 0 0 0 0 0 0 0 1 1 1 1 1 1 1 0 0 0 0 0 0 0 0 0 0 0 0 0 0 0 0 0 0 0 0 0 0 0 0 0 0 0 0
0 0 0 0 0 0 0 1 1 1 1 1 1 1 1 1 1 1 0 0 0 0 0 0 0 0 0 0 0 0 0 0 0 0 0 0 0 0 0 0 0 0 0
0 0 0 0 0 0 1 1 1 1 1 1 1 1 1 1 1 1 0 0 0 0 0 0 0 0 0 0 0 0 0 0 0 0 0 0 0 0 0 0 0 0 0
0 0 1 1 0 0 1 1 1 1 1 1 1 1 1 1 1 1 0 0 0 0 0 0 0 0 0 0 0 0 0 0 0 0 0 0 0 0 0 0 0 0 0
0 1 1 1 1 1 1 1 1 1 1 1 1 1 1 1 1 1 0 0 0 0 0 0 0 0 0 0 0 0 0 0 0 0 0 0 0 0 0 0 0 0 0
0 1 1 1 1 1 1 1 1 1 1 1 1 1 1 1 1 1 1 1 0 0 0 0 0 0 0 0 0 0 0 0 0 0 0 0 0 0 0 0 0 0 0
1 1 1 1 1 1 1 1 1 1 1 1 1 1 1 1 1 1 1 1 0 0 0 0 0 0 0 0 0 0 0 0 0 0 0 0 0 0 0 0 0 0 0
1 1 1 1 1 1 2 2 1 1 1 1 1 1 1 1 1 1 1 1 1 1 0 0 0 0 0 0 1 1 1 0 0 0 0 0 0 0 0 0 0 0 0
1 1 1 1 1 2 2 1 1 1 1 1 1 1 1 1 1 1 1 1 1 1 1 1 1 1 1 1 1 1 1 1 0 1 1 1 0 0 0 0 0 0 0
2 1 1 1 1 1 1 1 2 1 1 1 1 1 1 1 1 1 1 1 1 1 1 1 1 1 1 1 1 1 1 1 1 1 1 1 1 0 0 0 0 0 0
2 2 1 1 2 1 1 2 2 2 1 1 1 1 1 1 1 1 1 1 1 1 1 1 1 1 1 1 1 1 1 1 1 1 1 1 1 1 0 0 0 0 0
2 2 2 2 2 1 1 2 2 2 2 1 1 1 1 1 1 1 1 1 1 1 1 1 1 1 1 1 1 1 1 1 1 1 1 1 1 1 1 1 1 1 1
2 2 2 2 2 1 1 2 2 2 2 1 1 1 1 1 1 1 1 1 1 1 1 1 1 1 1 1 1 1 1 1 1 1 1 1 1 1 1 1 1 1 1
2 2 2 2 2 2 2 2 2 2 1 1 1 1 1 1 1 1 2 2 2 2 2 2 2 2 2 2 2 2 2 1 1 1 1 1 2 1 1 1 1 1 1
2 2 2 2 2 2 2 2 2 1 1 1 1 1 1 1 1 1 2 2 2 2 2 2 2 2 2 2 2 2 2 2 1 1 1 1 2 2 1 1 1 1 1
2 2 2 2 2 2 2 2 1 1 1 1 1 1 1 1 2 2 1 1 1 2 2 2 2 2 2 2 2 2 2 1 1 1 1 1 1 2 2 2 2 2 2
2 2 2 2 2 2 2 1 1 1 0 0 0 0 0 1 2 2 2 2 1 1 2 2 2 2 2 2 2 2 1 1 1 1 1 1 1 2 2 2 2 2 2
2 2 1 1 1 1 1 1 0 0 0 0 0 0 0 1 1 1 1 1 1 1 1 1 1 1 1 1 1 1 1 1 1 1 1 1 1 2 2 2 2 2 2
1 1 1 1 1 1 0 0 0 0 0 0 0 0 0 0 0 1 1 1 1 1 1 1 1 1 1 1 1 1 1 1 1 1 1 1 1 1 1 1 1 1 1
1 1 0 0 0 0 0 0 0 0 0 0 0 0 0 0 0 0 0 0 0 0 0 1 1 1 1 1 1 1 1 1 1 1 1 1 1 1 1 1 1 1 1
0 0 0 0 0 0 1 0 0 0 0 0 0 0 0 0 0 0 0 0 0 0 0 0 0 0 0 1 1 1 1 1 1 1 1 1 1 1 1 1 1 1 1
0 0 1 1 1 1 1 1 1 0 0 0 0 0 0 0 0 0 0 0 0 0 0 0 0 0 0 0 0 1 1 1 1 1 1 1 1 1 1 1 1 1 1
0 1 1 1 1 1 1 1 1 1 0 0 0 0 0 0 0 0 0 0 0 0 0 0 0 0 0 0 0 0 0 1 1 1 1 1 1 1 1 1 1 1 1
1 1 1 1 1 1 1 1 1 1 1 0 0 0 0 0 0 0 0 0 0 0 0 0 0 0 0 0 0 0 0 0 1 1 1 1 1 1 1 1 1 1 1
1 1 1 1 2 2 1 1 1 1 1 1 0 0 0 0 0 0 0 0 0 0 0 0 0 0 0 0 0 0 0 0 0 0 1 1 1 1 1 1 1 1 1
Wind_Speed
12 14 15 12 10 9 9 9 10 11 11 11 11 11 11 10 10 9 9 8 7 6 5 5 5 6 5 5 6 6 6 7 6 7 7 7 8 9 11 12 13 13 16
14 15 15 12 11 10 9 9 10 11 11 11 11 11 10 10 9 9 8 7 6 5 4 4 4 5 5 5 6 6 6 5 5 6 7 8 9 10 10 10 9 13 16
15 15 15 11 11 10 9 9 10 10 11 11 11 10 10 9 8 8 7 6 5 4 4 3 3 4 4 4 5 5 5 4 4 4 5 7 10 9 9 10 14 16 16
15 14 14 13 11 10 9 9 9 10 10 10 10 10 9 8 8 7 6 6 5 4 4 3 3 3 4 4 4 4 4 4 4 4 4 6 8 11 10 12 14 15 15
14 13 14 13 12 10 9 9 9 9 9 9 9 9 8 8 7 6 6 6 5 5 5 4 4 4 4 4 3 3 3 4 3 7 4 5 7 10 10 11 13 14 14
14 13 15 12 12 11 10 9 9 8 8 8 8 8 7 7 7 6 6 5 5 5 5 5 5 5 5 5 4 3 2 3 7 3 4 3 7 9 9 10 12 13 13
13 12 15 12 11 11 10 9 9 8 8 8 8 7 7 7 7 7 7 6 6 6 5 5 5 6 6 6 5 5 3 3 7 2 3 3 7 9 8 9 10 12 12
12 11 13 11 10 10 9 8 8 8 7 7 7 7 7 7 7 7 7 7 7 7 7 6 6 7 7 7 7 6 5 7 7 3 3 3 9 6 7 8 9 10 11
10 10 10 11 10 9 7 6 6 5 5 5 5 5 6 7 7 8 8 8 8 8 8 8 8 8 8 8 8 8 7 7 8 4 5 3 9 7 7 8 9 10 11
8 8 7 6 7 7 7 6 4 3 2 3 4 5 6 7 9 9 9 10 9 9 9 9 9 9 9 9 9 9 8 7 11 7 5 5 9 9 9 9 9 10 10
7 5 5 6 5 3 3 5 4 3 2 4 6 7 7 7 8 8 9 6 8 9 10 10 10 9 9 10 10 10 9 7 9 6 5 7 9 10 11 11 11 11 11
8 6 4 4 4 3 2 2 1 1 1 3 3 4 5 4 5 7 1 5 9 10 10 11 10 9 10 8 10 11 7 8 8 6 5 9 9 10 12 12 12 13 13
9 6 6 4 4 3 2 1 0 1 1 2 3 4 4 4 4 5 3 4 7 9 8 8 9 8 8 7 6 7 8 7 6 6 5 10 10 11 12 12 13 15 15
7 6 6 5 4 2 2 1 1 0 1 2 2 4 3 3 4 4 3 4 4 4 4 5 4 7 7 8 9 9 9 8 7 6 5 10 11 12 12 12 13 15 16
7 6 5 4 4 3 3 1 2 2 3 3 3 4 5 4 4 4 3 3 4 3 4 4 5 6 6 7 8 10 10 10 10 9 6 10 12 13 13 13 13 14 16
7 6 5 5 5 4 3 3 2 3 3 4 5 6 7 5 4 4 4 3 3 3 3 3 4 4 5 5 8 9 10 10 10 10 10 10 14 14 15 15 15 15 15
7 6 6 6 6 5 5 4 3 3 4 5 5 6 7 7 6 5 4 3 2 2 3 3 4 4 5 6 7 8 9 10 10 11 11 9 10 15 17 17 16 16 16
7 7 5 5 6 6 5 3 4 4 5 4 5 5 7 7 7 6 5 4 2 3 3 2 4 4 4 5 6 6 7 7 10 11 11 11 10 10 15 19 18 17 17
6 6 6 5 5 5 4 3 4 3 4 4 4 6 7 7 7 6 4 4 4 4 3 4 3 4 5 5 6 6 7 8 9 10 12 12 12 11 11 13 18 17 19
6 6 6 6 4 4 3 2 1 2 2 3 4 5 6 6 7 7 5 4 6 5 4 3 4 4 5 5 7 7 8 8 8 9 11 11 11 13 13 13 12 14 19
7 6 6 5 5 3 2 2 1 1 2 3 3 5 6 6 7 6 6 4 5 5 5 6 6 6 6 4 7 8 8 10 10 9 10 9 11 11 12 13 11 10 10
8 7 6 6 6 5 2 1 1 2 3 3 3 3 5 6 6 5 6 7 5 5 6 6 6 7 7 5 6 7 7 7 6 8 7 8 8 8 10 12 12 12 11
8 8 7 7 6 5 4 3 2 3 4 3 3 3 5 6 6 6 6 7 7 8 6 6 7 8 7 6 4 5 6 6 4 3 4 4 4 4 6 7 11 12 13
10 9 8 8 7 6 6 5 6 5 6 5 4 4 5 5 5 6 6 6 6 7 6 7 5 6 7 7 4 4 5 5 6 5 4 3 4 4 5 5 7 9 11
9 9 8 8 8 7 6 5 6 6 5 5 5 4 6 4 4 5 5 5 6 6 6 7 6 7 7 7 6 5 5 5 7 7 7 5 5 4 4 5 5 6 8
8 8 8 8 8 7 7 6 6 6 6 6 6 6 6 4 4 3 4 4 6 5 5 6 6 8 7 7 8 7 7 6 6 6 7 7 6 5 4 4 5 5 5
Wind_Direction
148 138 137 146 142 134 127 127 132 139 146 148 148 147 146 146 145 145 144 144 141 134 121 102 87 82 84 91 98 100 103 109 114 116 116 115 115 120 126 133 142 124 124
141 137 139 146 144 137 129 123 124 127 132 136 137 137 138 139 140 143 145 146 147 142 130 112 94 84 85 92 100 105 111 116 117 121 127 126 119 122 130 138 127 121 130
140 138 146 144 144 139 132 125 122 122 123 125 128 130 132 135 138 143 149 153 156 155 143 129 113 100 96 100 106 112 117 115 117 134 169 142 124 126 128 122 119 130 133
141 142 147 140 145 143 137 131 127 125 125 126 129 133 135 138 143 150 158 165 170 172 166 163 150 129 119 117 119 123 126 121 121 207 189 122 128 126 131 127 131 135 135
139 138 132 145 147 147 145 141 137 135 134 135 137 140 143 147 154 163 172 180 188 190 187 188 182 161 149 145 142 141 138 136 158 239 110 110 114 130 139 139 140 139 140
141 145 134 150 149 151 151 151 150 149 149 148 150 153 157 163 171 180 190 198 202 199 199 204 199 184 173 169 169 169 156 159 222 173 114 137 124 138 149 150 149 148 149
147 141 137 150 150 154 157 159 161 161 162 163 166 171 176 182 190 195 203 210 215 213 210 214 209 200 189 184 188 190 191 212 254 139 147 149 114 138 160 161 159 156 156
145 141 134 145 151 156 161 162 164 166 171 175 182 187 193 201 209 212 215 220 224 224 222 220 220 214 206 200 199 202 209 236 227 206 202 160 112 153 175 173 170 166 162
146 140 144 154 156 158 156 154 159 165 174 183 195 206 215 224 230 230 229 230 232 232 231 227 225 220 215 210 207 209 216 236 256 222 220 179 133 177 193 188 184 180 174
138 138 143 152 145 161 158 144 143 150 179 205 217 229 238 241 239 234 235 225 232 238 239 236 232 227 220 216 215 213 218 228 245 221 221 160 154 193 204 202 197 195 190
132 132 137 135 134 154 153 130 166 166 188 233 217 219 240 246 245 226 231 217 234 241 242 242 238 233 227 219 219 216 217 235 243 238 226 143 171 202 211 210 207 204 202
142 138 127 122 136 147 125 125 147 213 187 265 283 257 253 263 273 274 217 239 249 250 247 240 241 235 231 225 208 207 222 229 254 240 214 155 189 212 219 218 212 209 208
142 139 133 133 132 132 125 110 93 305 327 292 310 302 287 283 270 270 262 238 239 239 241 226 224 231 228 227 226 216 223 230 238 243 218 169 202 221 226 224 218 213 210
139 135 128 123 119 117 113 131 167 7 354 345 348 327 307 286 278 272 266 263 256 251 249 253 242 241 243 236 233 233 227 228 235 237 221 184 208 224 229 231 227 219 212
139 132 123 114 108 120 121 122 87 53 21 30 4 2 332 307 300 296 286 278 269 265 245 244 247 250 249 243 239 234 233 234 238 238 228 206 213 220 229 234 234 229 220
131 126 121 111 105 115 114 97 71 57 47 23 25 16 355 337 335 313 288 281 275 274 283 272 263 256 249 249 247 245 242 238 235 235 239 222 214 217 224 231 234 234 229
134 130 131 129 125 120 110 99 84 61 45 32 30 24 7 354 346 319 300 279 288 275 258 257 262 258 253 250 251 250 245 241 240 236 239 238 225 216 219 226 231 234 234
137 134 138 130 122 112 95 85 75 50 44 35 24 22 15 2 348 319 307 301 310 277 266 262 259 268 268 269 263 258 250 241 239 237 237 233 234 232 219 219 226 229 233
145 144 143 128 129 117 109 100 84 69 41 26 18 16 9 357 351 323 318 335 292 277 273 279 287 291 288 285 275 255 250 244 237 235 235 236 232 232 235 217 217 224 230
161 163 157 155 145 154 149 144 118 58 31 19 18 21 2 355 357 335 311 338 306 290 285 286 293 281 287 283 283 279 262 251 241 237 235 233 231 229 230 232 221 220 224
178 179 180 183 167 193 206 249 291 338 346 354 4 19 358 355 353 339 330 330 307 302 306 291 284 276 271 289 281 273 258 243 237 235 233 235 232 230 230 228 229 230 220
193 195 198 202 201 213 198 255 305 327 319 338 342 360 348 348 338 332 345 315 321 308 283 285 278 289 289 278 287 292 282 254 221 233 228 227 238 235 231 228 226 226 232
207 209 212 212 212 218 213 229 223 240 262 284 325 330 345 332 327 331 324 322 323 301 305 304 288 275 281 280 274 292 297 302 322 242 230 226 226 237 240 236 229 227 226
216 216 217 218 219 216 219 244 270 292 306 324 314 327 321 311 316 317 316 318 315 310 316 292 299 294 276 275 259 254 277 308 297 295 263 231 230 243 252 249 241 228 226
225 224 220 221 224 221 228 232 248 273 294 302 307 306 302 309 305 312 312 314 311 302 321 316 311 293 283 277 280 271 266 258 257 272 284 292 276 258 246 251 251 238 228
229 228 225 220 223 220 224 231 246 273 285 297 299 306 300 304 305 319 305 308 300 311 312 301 301 283 287 292 286 280 274 274 275 278 280 279 280 277 277 269 255 246 230